Wind_Speed
12 10 7 2 2 7 5 8 6 8 10 12 10 16 21 26 26 32 39 39 51 48 51 34 14 13 12 14 16 15 12 19 24 22 16 10 8 6 7 8 8 7 5 8 6 2 4 8 9
14 13 7 5 5 4 10 12 7 7 8 12 14 20 24 18 31 37 37 52 47 51 49 28 11 12 11 13 13 14 17 20 20 17 14 13 9 11 13 15 13 10 8 9 8 4 7 8 9
17 13 7 8 9 10 12 16 11 5 8 9 11 19 21 26 29 29 42 49 53 51 46 17 9 11 10 12 12 12 15 15 15 15 15 15 14 17 17 16 14 13 12 9 9 8 11 10 9
19 15 12 12 7 11 9 10 13 8 12 14 10 22 24 23 23 32 43 47 47 50 39 10 10 12 11 11 9 11 15 15 17 16 17 17 17 18 17 16 15 11 12 12 9 8 9 10 9
24 17 13 12 8 7 16 14 15 16 16 4 15 27 21 20 33 32 44 49 48 51 22 9 12 13 12 11 7 11 14 15 16 17 19 20 19 20 17 14 13 14 17 17 16 16 13 12 11
25 21 16 10 15 12 14 11 15 10 12 10 22 27 22 22 35 41 39 47 51 51 10 11 15 16 14 14 10 10 13 13 16 19 18 18 20 21 26 28 29 32 39 38 34 29 22 15 11
26 26 23 17 18 19 13 15 15 14 12 8 15 24 19 21 28 38 36 44 51 41 9 13 17 20 16 16 14 12 13 15 17 18 20 20 23 27 28 34 40 45 49 53 49 50 40 30 24
29 30 28 21 19 17 22 21 20 18 9 10 20 16 25 24 26 37 34 41 43 29 9 15 20 22 19 18 18 20 18 16 17 22 22 24 25 28 31 34 40 48 54 55 52 53 55 51 51
30 28 26 22 19 21 22 25 26 19 17 13 17 18 24 20 29 32 32 38 38 21 8 14 19 21 20 24 20 21 20 20 23 24 25 26 28 28 30 34 37 47 51 51 50 44 46 46 41
33 30 30 25 22 14 24 23 27 24 23 24 24 28 32 29 28 29 30 37 35 18 8 12 19 18 20 22 19 23 25 25 25 28 29 28 28 28 30 32 36 34 38 33 34 33 35 31 35
32 32 30 27 23 24 28 22 24 29 29 27 27 29 29 28 25 27 30 33 31 18 5 10 16 17 20 16 22 22 26 27 27 29 31 29 29 28 28 32 34 40 44 35 29 30 34 31 30
36 35 32 30 27 26 21 15 17 11 11 25 29 25 23 23 24 26 29 32 27 17 4 7 13 17 17 18 17 23 27 29 30 30 31 31 28 28 27 27 30 34 37 34 30 29 32 24 31
41 37 36 32 27 28 24 21 10 28 30 34 27 23 23 25 25 27 29 32 24 15 3 4 8 13 12 17 18 20 21 24 27 28 30 28 30 29 30 28 26 29 30 29 27 25 27 28 28
44 42 41 35 33 27 27 22 29 23 25 27 34 30 27 27 26 28 30 30 18 13 1 5 6 17 15 16 15 14 20 20 23 24 27 28 30 32 28 26 25 21 25 24 22 22 26 27 27
50 47 44 42 39 34 31 31 30 28 33 33 31 29 29 27 28 29 30 30 17 12 4 7 9 11 18 15 13 17 17 19 19 22 21 25 28 30 30 29 26 25 26 24 25 26 27 26 27
55 52 49 45 43 39 36 30 26 22 28 26 26 30 31 30 29 29 30 28 14 10 6 7 9 11 14 16 12 14 17 19 18 18 21 21 23 26 25 24 22 22 22 24 23 24 25 26 26
52 57 56 50 47 42 39 34 28 25 33 41 37 38 33 31 31 30 30 26 13 11 10 9 11 15 13 16 13 13 14 15 18 17 19 18 20 20 22 21 20 20 21 21 21 22 24 25 27
51 57 57 55 53 47 42 39 34 33 30 40 42 33 32 34 34 33 30 26 11 11 12 10 12 17 14 16 15 14 14 14 15 19 17 17 17 16 18 18 19 18 17 18 19 20 22 24 29
52 52 54 57 56 53 49 45 40 40 42 39 31 42 35 36 37 34 29 23 12 12 12 9 12 17 19 17 19 16 16 14 15 15 17 16 15 15 17 15 16 16 16 16 16 20 21 23 27
57 54 54 54 54 54 52 49 45 37 36 35 37 31 36 36 42 36 29 19 14 13 15 12 14 19 20 19 20 17 16 16 15 15 15 14 14 14 14 13 13 14 15 17 17 20 22 24 26
63 61 60 57 53 51 50 46 45 31 37 43 47 53 44 40 39 30 23 18 15 17 17 15 16 18 20 22 20 21 18 18 14 12 13 13 11 10 12 10 9 12 14 15 17 20 22 25 26
66 67 65 61 55 51 47 43 43 45 32 36 41 31 28 28 27 22 18 18 15 18 20 18 18 18 21 20 23 22 20 17 16 12 11 12 10 9 10 6 6 9 12 12 15 17 19 22 25
69 72 70 67 62 54 46 41 38 36 40 38 36 25 23 23 20 18 21 17 16 20 22 19 19 18 22 23 24 23 21 19 17 14 9 10 8 8 8 5 3 7 8 8 11 13 15 19 23
75 73 72 70 68 56 50 45 39 34 44 42 35 26 24 22 21 25 24 18 16 22 23 23 22 20 22 26 25 24 23 20 17 14 10 7 7 6 6 3 4 4 5 5 6 10 12 14 19
77 77 74 73 73 59 61 52 47 44 42 36 36 41 30 23 25 27 31 21 19 21 17 21 24 24 24 28 28 23 22 22 19 15 12 8 7 6 5 3 2 1 2 4 5 7 10 13 15
84 82 79 74 71 65 69 57 53 52 49 51 34 29 28 28 26 28 31 27 23 20 17 16 20 23 25 30 30 28 24 22 20 17 15 11 8 8 5 3 2 2 4 4 5 8 9 11 13
89 91 81 80 76 72 73 67 62 59 55 50 51 43 41 30 28 32 30 30 29 24 20 16 17 21 21 23 27 28 28 25 23 19 17 14 11 10 8 6 5 4 6 7 7 9 9 10 12
92 85 89 86 82 75 76 71 70 63 60 55 50 41 47 50 22 32 32 31 34 28 25 21 18 21 20 18 22 26 28 26 24 22 20 18 15 14 12 9 9 8 7 9 9 10 10 12 11
88 88 95 94 89 81 78 76 76 73 67 62 52 54 57 54 64 46 29 38 32 31 31 27 23 21 21 25 24 26 28 28 26 25 24 22 20 19 16 14 12 12 10 11 12 11 11 11 10
95 96 97 99 97 89 84 81 81 84 77 69 59 57 57 51 49 54 50 43 35 34 34 35 28 28 24 22 25 26 26 24 26 27 26 25 24 23 21 19 17 15 15 14 14 14 13 11 11
Wind_Direction
190 192 189 265 161 350 319 5 316 335 324 321 321 346 340 324 339 337 332 341 342 346 349 349 342 336 3 358 356 7 41 84 98 96 93 89 76 64 24 14 12 16 51 32 17 265 217 205 198
198 200 202 256 228 279 10 350 357 341 335 339 12 354 356 339 334 329 333 340 340 345 348 349 357 357 14 13 20 40 77 90 94 84 73 72 52 41 40 37 47 51 31 15 21 48 183 161 172
208 207 224 248 245 290 310 342 329 340 336 328 329 344 352 323 333 328 340 344 343 346 351 1 11 26 24 21 46 64 75 80 76 72 66 56 56 55 46 35 39 44 42 23 20 56 137 162 173
210 216 237 254 266 263 285 275 302 302 304 298 315 352 343 337 332 339 343 343 346 347 349 25 28 39 26 33 59 70 72 71 69 65 66 65 53 48 43 45 51 47 7 20 40 62 116 129 130
220 224 233 252 283 259 284 287 293 303 311 358 342 336 340 331 357 349 345 344 346 348 358 50 43 46 33 39 69 86 76 68 67 68 69 58 54 54 47 40 58 58 49 56 66 79 94 110 106
225 224 236 269 246 219 276 282 299 325 344 286 317 314 324 313 325 334 341 347 354 354 31 77 50 53 42 51 73 90 75 76 75 78 69 66 60 69 74 77 76 74 70 69 71 74 80 86 88
225 224 225 225 236 231 228 273 274 286 320 292 317 304 309 304 317 338 345 343 354 356 65 73 56 58 54 58 77 86 85 91 86 83 78 66 72 82 84 79 82 82 75 73 77 77 77 73 75
223 227 231 228 233 245 254 260 261 280 276 279 260 277 291 301 318 338 341 343 354 359 65 65 62 58 62 67 80 99 97 98 96 91 80 83 83 89 83 76 86 87 81 77 80 74 72 77 85
222 219 224 226 224 220 248 245 251 258 275 258 276 281 284 293 320 334 339 346 359 6 39 66 72 62 66 87 88 97 91 102 102 95 88 93 96 95 83 78 91 94 80 74 76 79 72 63 68
228 222 221 228 228 226 272 251 251 255 260 271 275 286 299 304 317 331 339 348 3 5 37 71 90 75 90 88 82 99 94 104 102 97 91 94 96 95 86 82 88 93 76 75 76 76 63 61 61
230 233 232 232 231 230 236 253 255 259 261 260 274 282 292 302 312 332 338 350 2 1 34 80 103 93 108 94 97 97 100 104 101 96 93 93 91 92 93 89 88 85 82 88 60 64 77 89 71
226 221 224 227 222 228 233 277 259 277 250 291 269 274 286 300 315 329 339 349 0 357 28 83 124 91 92 104 94 105 102 99 99 94 89 90 95 93 92 99 91 88 87 81 97 81 75 84 69
228 227 227 225 221 226 223 227 162 245 244 263 253 289 298 302 313 323 335 348 351 350 47 116 130 137 122 114 108 112 99 97 96 93 89 88 85 93 93 90 91 86 89 91 86 78 69 68 67
231 230 232 232 231 228 224 218 202 224 242 252 249 281 288 297 310 319 328 342 329 339 235 146 150 151 149 120 122 123 111 98 97 92 95 98 92 88 91 93 92 86 90 90 86 69 64 62 63
234 232 231 232 232 231 231 228 229 242 260 257 264 271 281 291 304 315 323 332 327 324 227 166 170 158 156 134 121 127 117 90 93 102 95 98 97 93 88 87 88 82 79 75 74 72 67 62 52
236 235 234 232 231 230 230 234 239 254 227 239 260 270 281 290 297 307 317 328 322 308 221 182 173 168 160 148 125 120 102 100 95 111 104 102 102 99 92 84 80 77 72 68 64 64 60 55 48
234 236 236 233 232 231 232 233 233 238 231 257 275 269 274 285 292 302 312 316 302 292 231 189 182 170 161 148 141 127 111 108 106 111 108 113 105 97 94 89 81 74 65 64 60 61 58 56 44
230 235 237 236 236 233 231 232 233 238 234 263 262 259 269 280 287 296 302 305 278 276 233 195 185 176 163 155 151 140 125 117 108 105 105 118 111 114 97 89 84 73 64 63 64 64 61 56 48
230 234 235 237 237 235 232 234 231 239 246 245 254 276 270 272 281 290 295 289 257 263 215 193 187 185 172 161 165 151 140 136 123 112 111 112 119 112 114 101 85 77 63 58 60 66 60 55 48
228 231 234 234 235 235 233 232 232 243 235 236 262 260 276 276 278 280 283 267 249 236 205 195 189 193 185 173 170 163 151 147 134 122 119 125 117 123 111 100 82 69 68 67 63 63 55 50 46
228 228 231 232 233 233 233 230 228 214 232 250 252 271 276 274 270 270 266 242 238 220 204 190 194 197 193 185 175 174 163 159 152 136 125 128 123 117 126 106 87 63 65 74 70 64 58 51 44
228 229 229 231 232 232 232 227 226 225 215 185 260 270 268 259 252 245 234 231 232 219 206 190 197 197 192 190 186 182 178 169 160 151 138 136 132 137 134 114 99 67 71 69 70 64 57 48 39
229 229 229 228 230 229 230 226 221 220 210 196 230 269 257 240 231 225 211 221 218 212 210 195 199 196 190 187 191 191 184 179 174 160 152 156 138 140 141 107 117 61 63 58 60 55 46 37 32
231 229 229 228 229 229 227 223 217 209 211 212 213 233 248 219 234 201 204 212 221 216 229 205 195 195 191 190 191 195 193 192 190 183 174 167 165 151 163 126 108 77 51 51 40 35 37 27 24
231 231 228 227 229 223 227 220 218 208 208 208 203 217 220 222 208 203 201 204 222 225 238 234 201 193 196 195 194 190 194 199 200 199 198 190 183 187 194 160 141 72 26 10 7 4 13 14 15
230 230 227 225 224 218 224 220 213 213 208 201 199 191 218 231 209 210 209 206 208 213 226 230 222 202 200 201 196 194 194 200 204 202 205 197 207 213 213 216 230 272 295 318 331 349 0 1 1
232 231 229 226 223 219 223 221 216 216 214 206 202 198 187 223 225 209 211 207 206 212 226 224 217 215 203 204 199 196 197 200 203 210 210 207 212 219 227 231 234 249 267 290 311 326 350 354 357
232 231 232 229 223 218 220 219 222 218 213 213 204 197 180 206 228 225 221 211 210 212 218 218 209 210 210 192 199 198 199 201 199 204 211 214 222 223 229 233 235 241 254 264 284 306 328 335 344
233 230 229 228 225 221 217 217 221 220 215 213 203 184 184 187 196 211 220 223 214 214 216 213 211 207 210 202 190 199 202 203 204 209 214 219 220 223 227 238 246 253 256 255 267 281 299 321 329
231 230 229 227 225 220 214 216 219 221 216 209 200 196 194 195 196 199 215 215 215 214 216 214 214 214 218 219 214 202 203 210 210 212 216 218 220 225 226 233 239 253 260 260 262 272 283 307 315
Height
11009 11011 11012 11013 11014 11015 11015 11017 11018 11017 11015 11013 11014 11012 11011 11006 11005 11002 10997 10993 10988 10982 10975 10969 10965 10962 10960 10958 10955 10952 10948 10947 10947 10949 10950 10951 10951 10949 10947 10945 10943 10940 10938 10935 10933 10932 10932 10934 10936
11008 11011 11013 11014 11014 11014 11015 11017 11018 11016 11014 11012 11012 11011 11009 11008 11006 11001 10997 10993 10985 10979 10972 10966 10965 10964 10962 10959 10957 10954 10952 10952 10952 10952 10953 10953 10951 10949 10947 10944 10941 10939 10936 10933 10931 10930 10930 10933 10935
11007 11010 11013 11013 11014 11016 11016 11018 11020 11016 11015 11014 11012 11012 11011 11009 11007 11002 10999 10992 10985 10978 10970 10966 10965 10964 10963 10961 10960 10958 10957 10956 10955 10955 10955 10954 10951 10949 10947 10945 10942 10939 10936 10933 10931 10929 10929 10933 10935
11007 11010 11013 11015 11016 11016 11018 11021 11017 11017 11015 11013 11012 11011 11011 11008 11006 11003 11000 10993 10986 10979 10969 10966 10967 10965 10965 10964 10963 10962 10961 10959 10959 10959 10958 10956 10954 10952 10950 10947 10944 10940 10936 10933 10932 10930 10931 10933 10935
11005 11010 11013 11016 11017 11022 11019 11019 11019 11017 11015 11014 11011 11010 11011 11009 11003 11003 11000 10994 10986 10978 10969 10968 10968 10967 10967 10965 10965 10965 10964 10963 10963 10962 10961 10960 10958 10955 10953 10949 10946 10942 10938 10935 10933 10933 10933 10934 10936
11004 11008 11012 11012 11017 11018 11018 11019 11018 11017 11015 11014 11011 11011 11011 11009 11006 11004 11002 10995 10987 10980 10973 10971 10970 10969 10968 10966 10967 10967 10966 10966 10966 10965 10964 10964 10963 10960 10957 10953 10949 10947 10944 10940 10938 10938 10939 10940 10941
11001 11005 11009 11007 11015 11018 11019 11016 11016 11015 11012 11016 11013 11012 11011 11009 11009 11007 11003 10996 10989 10982 10977 10974 10973 10972 10970 10969 10968 10968 10968 10969 10969 10969 10969 10968 10966 10964 10961 10958 10956 10954 10951 10948 10946 10947 10945 10945 10946
10997 11001 11006 11010 11012 11016 11015 11015 11015 11014 11014 11014 11014 11013 11011 11010 11010 11009 11005 11000 10994 10985 10982 10979 10976 10975 10974 10972 10971 10971 10972 10973 10974 10974 10973 10971 10970 10968 10966 10963 10962 10962 10958 10957 10957 10958 10957 10955 10954
10993 10997 11002 11005 11010 11012 11014 11012 11012 11013 11012 11013 11013 11013 11013 11011 11011 11011 11007 11003 10996 10990 10987 10983 10981 10980 10979 10978 10977 10977 10976 10978 10978 10978 10977 10975 10974 10973 10971 10970 10968 10969 10966 10966 10966 10964 10962 10962 10962
10989 10993 10996 11000 11005 11014 11010 11012 11011 11013 11011 11010 11010 11011 11011 11012 11013 11011 11008 11005 10999 10994 10992 10989 10986 10985 10986 10985 10984 10983 10982 10982 10983 10982 10980 10980 10978 10977 10977 10976 10975 10974 10974 10970 10971 10971 10966 10966 10968
10986 10990 10992 10996 11001 11005 11010 11009 11010 11006 11007 11010 11011 11010 11011 11012 11014 11011 11008 11005 11001 10997 10995 10994 10990 10989 10989 10991 10991 10989 10988 10988 10987 10986 10984 10984 10983 10982 10982 10982 10982 10980 10975 10971 10976 10976 10974 10971 10973
10978 10983 10987 10992 10995 11000 11003 11006 11010 11004 10994 11008 11007 11008 11012 11012 11012 11011 11008 11005 11002 11000 10999 10996 10994 10994 10996 10994 10997 10996 10995 10993 10991 10990 10989 10988 10987 10986 10986 10987 10988 10988 10984 10977 10983 10986 10982 10989 10977
10973 10979 10981 10987 10991 10995 11001 11005 11012 11014 11008 11007 11007 11007 11010 11010 11011 11009 11007 11005 11003 11002 11000 10997 10998 10994 10998 10999 11000 11002 11000 10999 10996 10995 10994 10995 10993 10991 10991 10992 10993 10993 10994 10993 10992 10991 10988 10985 10982
10967 10972 10977 10983 10986 10992 10997 11000 11005 11005 11005 11004 11006 11006 11008 11009 11010 11008 11006 11005 11003 11003 11001 11000 10999 11000 11001 11002 11003 11005 11005 11003 11001 11000 10999 10998 10997 10997 10996 10997 10997 10998 10997 10997 10997 10994 10991 10988 10987
10958 10964 10970 10976 10981 10987 10992 10995 11001 11004 10998 11000 11003 11004 11006 11008 11007 11006 11005 11004 11003 11003 11002 11002 11002 11003 11003 11005 11007 11008 11008 11006 11005 11004 11003 11003 11003 11002 11002 11002 11003 11001 10999 10999 10999 10998 10996 10994 10990
10949 10955 10961 10969 10974 10981 10988 10993 10997 11001 10996 10993 10999 11001 11004 11005 11005 11004 11004 11003 11002 11002 11002 11001 11003 11003 11005 11008 11009 11010 11011 11010 11008 11009 11008 11008 11007 11006 11005 11006 11007 11006 11004 11003 11003 11002 10999 10996 10994
10938 10944 10951 10960 10965 10975 10982 10988 10993 10995 10992 10989 10994 10998 11001 11002 11002 11002 11001 11002 11001 11001 11001 11001 11002 11003 11006 11007 11010 11012 11013 11014 11012 11012 11012 11012 11011 11011 11011 11010 11010 11010 11009 11008 11008 11006 11004 11001 10999
10927 10934 10942 10950 10957 10967 10975 10980 10986 10992 10992 10992 10991 10992 10997 10998 10999 10999 10999 11000 11000 11000 11000 10999 11001 11002 11005 11007 11009 11012 11014 11015 11015 11015 11015 11014 11015 11016 11016 11015 11013 11013 11014 11013 11012 11011 11009 11007 11004
10921 10926 10934 10939 10948 10957 10967 10972 10980 10984 10987 10985 10986 10988 10992 10995 10995 10995 10996 10997 10998 10998 10998 10998 11000 11002 11003 11006 11009 11012 11016 11017 11018 11017 11018 11018 11018 11019 11019 11018 11017 11017 11017 11017 11017 11015 11013 11011 11008
10911 10916 10922 10929 10937 10946 10958 10966 10973 10978 10979 10981 10983 10983 10987 10988 10990 10993 10994 10995 10996 10996 10997 10997 10999 11002 11003 11006 11009 11013 11016 11018 11020 11019 11020 11020 11020 11021 11019 11020 11021 11021 11021 11020 11021 11019 11018 11014 11012
10899 10904 10909 10918 10927 10936 10945 10957 10966 10970 10977 10977 10975 10980 10979 10982 10985 10989 10991 10992 10993 10994 10995 10996 10997 10999 11003 11006 11009 11012 11015 11019 11020 11021 11022 11022 11023 11023 11022 11023 11024 11024 11024 11023 11023 11022 11021 11018 11016
10885 10889 10898 10908 10919 10928 10937 10948 10955 10965 10982 10979 10973 10974 10970 10975 10980 10983 10987 10990 10991 10993 10994 10994 10996 10997 11000 11004 11008 11011 11014 11018 11020 11021 11023 11024 11025 11025 11025 11026 11026 11026 11025 11025 11024 11023 11022 11021 11020
10869 10875 10886 10897 10908 10918 10931 10941 10948 10956 10964 10963 10965 10963 10965 10970 10976 10979 10984 10987 10989 10990 10992 10992 10994 10996 10998 11001 11005 11009 11013 11017 11020 11022 11024 11025 11025 11026 11027 11027 11028 11027 11027 11027 11025 11025 11024 11023 11022
10850 10861 10872 10883 10894 10911 10924 10933 10941 10946 10947 10947 10958 10963 10964 10966 10971 10975 10980 10984 10987 10989 10990 10989 10991 10994 10996 10998 11002 11007 11012 11016 11019 11021 11024 11025 11026 11027 11028 11028 11029 11028 11028 11029 11028 11027 11026 11025 11024
10836 10844 10856 10868 10881 10909 10907 10921 10933 10937 10940 10945 10943 10955 10960 10965 10969 10973 10976 10980 10985 10987 10989 10991 10990 10990 10993 10995 10999 11004 11009 11014 11017 11019 11023 11025 11027 11028 11029 11030 11030 11030 11029 11029 11029 11029 11028 11026 11025
10815 10823 10837 10853 10868 10888 10893 10910 10923 10928 10933 10938 10940 10945 10964 10967 10968 10971 10974 10977 10981 10985 10987 10989 10991 10990 10990 10992 10996 11001 11005 11010 11015 11018 11021 11024 11026 11028 11029 11030 11030 11030 11030 11030 11030 11030 11029 11028 11027
10799 10800 10828 10834 10849 10867 10880 10893 10903 10916 10924 10932 10941 10952 10964 10973 10968 10967 10969 10972 10976 10980 10984 10986 10989 10991 10990 10992 10995 10998 11002 11005 11011 11016 11019 11022 11024 11026 11028 11029 11030 11030 11030 11030 11030 11030 11030 11029 11028
10768 10796 10802 10816 10831 10851 10862 10881 10892 10903 10915 10924 10937 10947 10952 10963 10964 10968 10966 10966 10969 10974 10979 10984 10986 10988 10991 10991 10993 10996 10999 11003 11007 11011 11015 11019 11022 11024 11026 11027 11028 11028 11029 11029 11030 11030 11030 11029 11027
10750 10766 10771 10789 10809 10833 10849 10864 10875 10887 10897 10911 10926 10933 10937 10942 10954 10956 10953 10961 10964 10970 10974 10979 10982 10985 10987 10989 10989 10992 10995 10998 11002 11006 11010 11015 11018 11021 11024 11025 11026 11026 11027 11027 11028 11028 11028 11028 11027
10724 10737 10745 10758 10784 10809 10829 10845 10855 10859 10877 10893 10912 10919 10924 10932 10937 10941 10948 10954 10959 10964 10969 10974 10977 10980 10983 10987 10989 10989 10992 10996 10998 11001 11004 11009 11013 11015 11019 11022 11023 11024 11025 11025 11025 11026 11026 11026 11026